Voltar ao catálogo

ASTROCAST-01

AtivoRádio AmadorSSO
NORAD 43798·PAYLOAD·🇨🇭 Switzerland

Lançado Dec 3, 2018 de Vandenberg Space Force Base

Loading…

Próximas Passagens (próximas 24 horas)

TLE

AtualizadoSource: Space-Track

Época: Sep 14, 2026, 11:02 UTC

1 43798U 18099AS  26257.45981675  .00037839  00000-0  54761-3 0  9991
2 43798  97.4307 339.1194 0003104 240.4320 119.6625 15.55807852428286

Acompanhe ASTROCAST-01 em tempo real com AllMySat

Download on the App Store